Location: Bun Machan
(52.1403°N, 7.3744°W)
Time: 02:58:52
(UTC+00:00)

UNK - Pass Details

Date: 14 July 2020
Orbit: 667 x 685 km, 98.1° (Epoch: 04 August)

Event Time Altitude Azimuth Distance (km) Brightness Sun altitude
Exits shadow 01:33:05 12° 144° (SE) 1,978 5.8 -15.2°
Maximum altitude 01:37:14 54° 69° (ENE) 828 4.4 -15.0°
Drops below altitude 10° 01:41:46 10° 353° (N) 2,132 7.4 -14.8°
Sets 01:44:03 0° 349° (N) 3,055 8.3 -14.7°
